Regional Weather Roundup
Issued by NWS State College, PA

Home | Current Version | Previous Version | Text Only | Print | Product List | Glossary On
Versions: 1 2 3 4 5 6 7 8 9 10 11 12 13 14 15 16 17 18 19 20 21 22 23 24 25 26 27 28 29 30 31 32 33 34 35 36 37 38 39 40 41 42 43 44 45 46 47 48 49 50
000
ASUS41 KCTP 311903
RWRCTP

REGIONAL WEATHER ROUNDUP
NATIONAL WEATHER SERVICE STATE COLLEGE PA
300 PM EDT FRI OCT 31 2014

Note: "fair" indicates few or no clouds below 12,000 feet with no
significant weather and/or obstructions to visibility.

* = STATION THAT DOES NOT REPORT PRECIPITATION /E.G. RAIN...SNOW...ETC/
    THUNDER OR FOG.

PAZ002>004-007>009-013>016-020>023-029>032-312000-
WESTERN PENNSYLVANIA

CITY           SKY/WX    TMP DP  RH WIND       PRES   REMARKS
ERIE           CLOUDY    49  39  68 SE6       29.86F
MEADVILLE      LGT RAIN  44  37  76 W7        29.85F
FRANKLIN*      CLOUDY    43  36  75 S5        29.87F
NEW CASTLE       N/A     46  38  74 CALM      29.87F
BEAVER COUNTY  RAIN      45  39  81 S3        29.87F
BUTLER*        CLOUDY    43  37  81 CALM      29.89S
PITTSBURGH INT LGT RAIN  43  38  82 W5        29.87F
PITTSBURGH     LGT RAIN  44  37  76 NW3       29.86F
INDIANA*       CLOUDY    46  37  71 CALM      29.89F
LATROBE        CLOUDY    46  37  71 CALM      29.87F
WASHINGTON CO* CLOUDY    43  37  81 CALM      29.88F
$$

PAZ004>006-010>012-017>019-024>028-033>037-041-042-045-046-049>053-312000-
CENTRAL PENNSYLVANIA

CITY           SKY/WX    TMP DP  RH WIND       PRES   REMARKS
BRADFORD       LGT RAIN  40  36  86 S3        29.86F FOG
DUBOIS         CLOUDY    43  38  82 CALM      29.85F
CLEARFIELD     CLOUDY    46  35  65 E6        29.87F
JOHNSTOWN      CLOUDY    43  33  68 S6        29.83F
ALTOONA        CLOUDY    47  36  65 E6        29.87F
STATE COLLEGE  CLOUDY    46  34  61 CALM      29.87F
WILLIAMSPORT   CLOUDY    52  33  48 W7        29.89F
SELINSGROVE    CLOUDY    51  33  50 CALM      29.90F
FT INDIANTOWN  CLOUDY    52  32  47 W3        29.89F
CAPITAL CITY   CLOUDY    52  35  52 CALM      29.90F
HARRISBURG     PTSUNNY   52  34  50 W3        29.89F
YORK           CLOUDY    52  33  48 E5        29.89F
$$

PAZ038>040-043-044-047-048-054-055-060>062-067>071-312000-
EASTERN PENNSYLVANIA

CITY           SKY/WX    TMP DP  RH WIND       PRES   REMARKS
SCRANTON       SUNNY     55  29  36 MISG      29.88F
MOUNT POCONO   SUNNY     47  27  45 MISG      29.88F
ALLENTOWN      CLOUDY    53  33  46 E7        29.90F
QUAKERTOWN*    CLOUDY    50  36  57 NE5       29.91F
READING        MOSUNNY   54  31  41 NE10      29.89F
LANCASTER      PTSUNNY   54  31  41 NE7       29.88F
COATESVILLE    MOCLDY    52  32  46 N6        29.89F
POTTSTOWN      CLOUDY    51  36  56 VRB6      29.91F
BLUE BELL      CLOUDY    52  37  58 CALM      29.90F
DOYLESTOWN     CLOUDY    49  35  58 NE6       29.90F
WILLOW GROVE   NOT AVBL
NORTH PHILA    CLOUDY    52  35  52 NE9       29.92F
PHILADELPHIA   CLOUDY    53  36  52 N9        29.91F
$$



USA.gov is the U.S. government's official web portal to all federal, state and local government web resources and services.